Location: Unspecified
(0.0000°N, 0.0000°E)
Time: 11:09:17
(UTC+00:00)

Tiros 1 - Pass Details

Date: 26 November 2019
Orbit: 630 x 664 km, 48.4° (Epoch: 14 December)

Event Time Altitude Azimuth Distance (km) Brightness Sun altitude
Rises 09:40:10 0° 255° (WSW) 2,947 10.3 52.6°
Reaches altitude 10° 09:43:46 10° 283° (WNW) 2,026 9.5 53.3°
Maximum altitude 09:45:51 13° 310° (NW) 1,835 9.3 53.7°
Drops below altitude 10° 09:47:56 10° 337° (NNW) 2,013 9.5 54.1°
Sets 09:51:30 0° 5° (N) 2,910 10.3 54.8°
